[Date Prev][Date Next][Thread Prev][Thread Next] - [Date Index][Thread Index][Author Index]
2 Line ISS Keps 12-13
- Subject: [sarex] 2 Line ISS Keps 12-13
- From: "Dave Larsen PhD" <doc@xxxxxxxxxxx>
- Date: Sun, 12 Dec 2004 18:04:28 -0800
ISS
1 25544U 98067A 04348.03622685 .00015533 00000-0 12438-3 0 3511
2 25544 51.6377 132.8540 0004428 103.5674 38.8279 15.71261826346412
----
Via the sarex mailing list at AMSAT.ORG courtesy of AMSAT-NA.
To unsubscribe, send "unsubscribe sarex" to Majordomo@amsat.org
AMSAT Home